413P/Larson (2021)

Japanese version
Home page
Updated on May 4, 2021

---------------------------------------------------------------------

* Profile

Designation 413P/2020 W4
Recovery Date November 25, 2020
Magnitude 20.5 mag
Recoverer E. Schwab (Egelsbach, Germany)

* Pictures

* Orbital Elements

Epoch 2021 July 5.0 TT = JDT 2459400.5
T 2021 July 20.20533 TT                                 Rudenko
q   2.1398715            (2000.0)            P               Q
n   0.13789883     Peri.  186.03972     -0.70886542     +0.68371613
a   3.7104706      Node    39.02513     -0.63507350     -0.51175162
e   0.4232884      Incl.   15.97807     -0.30690628     -0.52023315
P   7.15
From 646 observations 2014 Jan. 6-2021 May 1, mean residual 0".9.

* Finding Charts

* Magnitudes Graph

        m1 = 11.0 + 5 log d + 15.0 log r

---------------------------------------------------------------------

The orbital elements are published on M.P.E.C. 2021-J28.
The charts are made with StellaNavigator Ver.10 (AstroArts).
The magnitudes graphs are made with Comet for Windows.

---------------------------------------------------------------------

Copyright(C) Seiichi Yoshida (comet@aerith.net). All rights reserved.